Weather History for Elizabethtown, NC

Change the Weather History Date:

Sunday, December 9, 2012

  Actual Average (KILM) Record (KILM)
Temperature  
Mean Temperature 62 °F 50 °F  
Max Temperature 75 °F 61 °F 78 °F (1943)
Min Temperature 49 °F 39 °F 17 °F (1882)
Degree Days  
Heating Degree Days 3 15  
Month to date heating degree days 127  
Since 1 July heating degree days 496  
Cooling Degree Days 0 0  
Month to date cooling degree days 0  
Year to date cooling degree days 2037  
Growing Degree Days 12 (Base 50)    
Moisture  
Dew Point 58 °F    
Average Humidity 87    
Maximum Humidity 100    
Minimum Humidity 61    
Precipitation  
Precipitation 0.00 in 0.11 in 2.47 in (1989)
Month to date precipitation 1.04  
Year to date precipitation 55.03  
Snow  
Snow 0.00 in 0.10 in T in (1937)
Month to date snowfall 0.1  
Since 1 July snowfall 0.1  
Snow Depth -    
Sea Level Pressure  
Sea Level Pressure 30.09 in    
Wind  
Wind Speed 3 mph (SSE)    
Max Wind Speed 9 mph    
Max Gust Speed -    
Visibility 7 miles    
Events      
T = Trace of Precipitation, MM = Missing Value Source: NWS Daily Summary

Daily Weather History Graph

Daily Weather History Graph

Search for Another Location

Airport:

Trip Planner

Search our weather history database for the weather conditions in past years. The results will help you decide how hot, cold, wet, or windy it might be!

Date:

Astronomy

Dec. 09, 2012 Rise Set
Actual Time 7:09 AM EST 5:03 PM EST
Civil Twilight 6:42 AM EST 5:31 PM EST
Nautical Twilight 6:10 AM EST 6:03 PM EST
Astronomical Twilight 5:40 AM EST 6:33 PM EST
Moon 2:48 AM EST (12/9) 2:02 PM EST (12/9)
Length of Visible Light 10h 49m
Length of Day
9h 53m
Waning Crescent, 19% of the Moon is Illuminated
Dec 9
Waning Crescent
Dec 13
New
Dec 20
First Quarter
Dec 28
Full
Jan 4
Last Quarter

Hourly Weather History & Observations

Time (EST) Temp. Dew Point Humidity Pressure Visibility Wind Dir Wind Speed Gust Speed Precip Events Conditions
12:15 AM 56.3 °F 55.8 °F 98% 30.08 in 7.0 mi SSW 3.5 mph - N/A   Mostly Cloudy
12:35 AM 56.7 °F 55.8 °F 97% 30.08 in 7.0 mi SSW 5.8 mph - N/A   Overcast
12:55 AM 56.3 °F 54.9 °F 95% 30.09 in 7.0 mi SW 3.5 mph - N/A   Scattered Clouds
1:15 AM 56.1 °F 55.2 °F 97% 30.09 in 7.0 mi SSW 3.5 mph - N/A   Clear
1:35 AM 55.6 °F 54.7 °F 97% 30.09 in 7.0 mi SW 3.5 mph - N/A   Clear
1:55 AM 55.6 °F 54.7 °F 97% 30.09 in 7.0 mi SSW 3.5 mph - N/A   Clear
2:15 AM 55.4 °F 54.5 °F 97% 30.09 in 5.0 mi Calm Calm - N/A   Clear
2:35 AM 54.7 °F 54.3 °F 99% 30.09 in 4.0 mi Calm Calm - N/A   Clear
2:55 AM 54.0 °F 53.6 °F 99% 30.09 in 4.0 mi Calm Calm - N/A   Clear
3:15 AM 54.0 °F 54.0 °F 100% 30.09 in 3.0 mi Calm Calm - N/A   Scattered Clouds
3:35 AM 54.0 °F 54.0 °F 100% 30.09 in 4.0 mi Calm Calm - N/A   Scattered Clouds
3:55 AM 54.0 °F 54.0 °F 100% 30.09 in 3.0 mi Calm Calm - N/A   Scattered Clouds
4:15 AM 50.9 °F 50.9 °F 100% 30.09 in 1.0 mi Calm Calm - N/A   Mostly Cloudy
4:35 AM 52.9 °F 52.9 °F 100% 30.10 in 3.0 mi Calm Calm - N/A   Mostly Cloudy
4:55 AM 51.8 °F 51.8 °F 100% 30.10 in 3.0 mi Calm Calm - N/A   Scattered Clouds
5:15 AM 51.1 °F 51.1 °F 100% 30.11 in 0.8 mi Calm Calm - N/A   Mostly Cloudy
5:35 AM 51.1 °F 51.1 °F 100% 30.11 in 1.2 mi Calm Calm - N/A   Mostly Cloudy
5:55 AM 50.4 °F 50.4 °F 100% 30.11 in 3.0 mi Calm Calm - N/A   Scattered Clouds
6:15 AM 50.5 °F 50.5 °F 100% 30.12 in 2.0 mi Calm Calm - N/A   Mostly Cloudy
6:35 AM 49.5 °F 49.5 °F 100% 30.13 in 4.0 mi Calm Calm - N/A   Scattered Clouds
6:55 AM 50.4 °F 50.4 °F 100% 30.13 in 3.0 mi Calm Calm - N/A   Scattered Clouds
7:15 AM 50.0 °F 50.0 °F 100% 30.14 in 4.0 mi Calm Calm - N/A   Mostly Cloudy
7:35 AM 50.9 °F 50.9 °F 100% 30.14 in 2.0 mi Calm Calm - N/A   Overcast
7:55 AM 51.6 °F 51.6 °F 100% 30.14 in 2.5 mi Calm Calm - N/A   Overcast
8:15 AM 53.8 °F 53.8 °F 100% 30.14 in 3.0 mi Calm Calm - N/A   Overcast
8:35 AM 55.8 °F 55.8 °F 100% 30.15 in 3.0 mi Calm Calm - N/A   Scattered Clouds
8:55 AM 57.4 °F 57.4 °F 100% 30.15 in 4.0 mi Calm Calm - N/A   Clear
9:15 AM 59.7 °F 58.8 °F 97% 30.16 in 5.0 mi Calm Calm - N/A   Clear
9:35 AM 62.8 °F 57.4 °F 82% 30.16 in 10.0 mi Calm Calm - N/A   Clear
9:55 AM 64.4 °F 56.3 °F 75% 30.16 in 10.0 mi Calm Calm - N/A   Clear
10:15 AM 66.2 °F 57.4 °F 73% 30.16 in 10.0 mi Calm Calm - N/A   Scattered Clouds
10:35 AM 67.5 °F 57.9 °F 71% 30.15 in 10.0 mi South 3.5 mph - N/A   Clear
10:55 AM 68.4 °F 59.2 °F 72% 30.15 in 10.0 mi SW 4.6 mph - N/A   Clear
11:15 AM 69.8 °F 60.1 °F 71% 30.14 in 10.0 mi SSW 4.6 mph - N/A   Mostly Cloudy
11:35 AM 71.8 °F 60.8 °F 68% 30.13 in 10.0 mi South 5.8 mph - N/A   Overcast
11:55 AM 73.4 °F 61.3 °F 66% 30.12 in 10.0 mi SSW 4.6 mph - N/A   Scattered Clouds
12:15 PM 73.8 °F 61.0 °F 64% 30.11 in 10.0 mi South 6.9 mph - N/A   Mostly Cloudy
12:35 PM 74.1 °F 60.8 °F 63% 30.09 in 10.0 mi SSE 5.8 mph - N/A   Overcast
12:55 PM 74.3 °F 60.8 °F 63% 30.08 in 10.0 mi South 5.8 mph - N/A   Scattered Clouds
1:15 PM 73.4 °F 60.8 °F 65% 30.08 in 10.0 mi South 4.6 mph - N/A   Mostly Cloudy
1:35 PM 74.8 °F 61.5 °F 63% 30.08 in 10.0 mi SE 4.6 mph - N/A   Overcast
1:55 PM 75.2 °F 60.8 °F 61% 30.07 in 10.0 mi SE 6.9 mph - N/A   Overcast
2:15 PM 73.6 °F 61.7 °F 66% 30.07 in 10.0 mi SSE 3.5 mph - N/A   Mostly Cloudy
2:35 PM 74.3 °F 61.7 °F 65% 30.06 in 10.0 mi South 4.6 mph - N/A   Mostly Cloudy
2:55 PM 74.3 °F 61.3 °F 64% 30.07 in 10.0 mi South 4.6 mph - N/A   Scattered Clouds
3:15 PM 73.8 °F 61.5 °F 65% 30.07 in 10.0 mi SSE 8.1 mph - N/A   Mostly Cloudy
3:35 PM 74.5 °F 61.5 °F 64% 30.07 in 10.0 mi SSE 8.1 mph - N/A   Mostly Cloudy
3:55 PM 73.8 °F 61.7 °F 66% 30.06 in 10.0 mi SSE 8.1 mph - N/A   Scattered Clouds
4:15 PM 73.4 °F 61.7 °F 67% 30.06 in 10.0 mi SSE 9.2 mph - N/A   Clear
4:35 PM 71.6 °F 62.1 °F 72% 30.06 in 10.0 mi South 5.8 mph - N/A   Clear
4:55 PM 70.7 °F 62.2 °F 75% 30.06 in 10.0 mi SSE 4.6 mph - N/A   Clear
5:15 PM 69.4 °F 62.2 °F 78% 30.06 in 10.0 mi SSE 3.5 mph - N/A   Clear
5:35 PM 68.0 °F 61.9 °F 81% 30.06 in 10.0 mi Calm Calm - N/A   Clear
5:55 PM 67.3 °F 62.6 °F 85% 30.07 in 10.0 mi SE 3.5 mph - N/A   Clear
6:15 PM 67.1 °F 63.0 °F 87% 30.06 in 10.0 mi SE 3.5 mph - N/A   Scattered Clouds
6:35 PM 66.2 °F 62.8 °F 89% 30.07 in 10.0 mi SE 3.5 mph - N/A   Scattered Clouds
6:55 PM 66.2 °F 62.8 °F 89% 30.07 in 10.0 mi Calm Calm - N/A   Scattered Clouds
7:15 PM 66.2 °F 63.3 °F 90% 30.07 in 10.0 mi SE 3.5 mph - N/A   Scattered Clouds
7:35 PM 65.8 °F 63.1 °F 91% 30.07 in 10.0 mi SE 3.5 mph - N/A   Scattered Clouds
7:55 PM 64.8 °F 62.6 °F 93% 30.06 in 10.0 mi SE 4.6 mph - N/A   Clear
8:15 PM 64.4 °F 62.2 °F 93% 30.06 in 10.0 mi SE 4.6 mph - N/A   Clear
8:35 PM 63.5 °F 62.2 °F 96% 30.06 in 10.0 mi Calm Calm - N/A   Clear
8:55 PM 63.0 °F 62.1 °F 97% 30.05 in 10.0 mi Calm Calm - N/A   Clear
9:15 PM 62.8 °F 61.9 °F 97% 30.05 in 10.0 mi SE 3.5 mph - N/A   Clear
9:35 PM 62.4 °F 61.9 °F 98% 30.05 in 7.0 mi SE 3.5 mph - N/A   Scattered Clouds
9:55 PM 62.8 °F 62.6 °F 99% 30.04 in 7.0 mi SE 3.5 mph - N/A   Scattered Clouds
10:15 PM 62.6 °F 61.9 °F 97% 30.04 in 7.0 mi SE 3.5 mph - N/A   Scattered Clouds
10:35 PM 62.8 °F 62.6 °F 99% 30.04 in 7.0 mi Calm Calm - N/A   Mostly Cloudy
10:55 PM 62.4 °F 62.2 °F 99% 30.04 in 7.0 mi SE 3.5 mph - N/A   Mostly Cloudy
11:15 PM 62.6 °F 62.6 °F 100% 30.03 in 7.0 mi Calm Calm - N/A   Scattered Clouds
11:35 PM 61.0 °F 61.0 °F 100% 30.02 in 5.0 mi Calm Calm - N/A   Mostly Cloudy
11:55 PM 61.7 °F 61.7 °F 100% 30.01 in 4.0 mi Calm Calm - N/A   Overcast